This is the latest recevied weather packets stored in our database for station/object CE3MXM-13. If no packets are shown the sender has not sent any weather packets the latest 10 day(s).
| Time | Temp. | Humidity | Pressure | Rain* | Wind** | Luminosity | Snow |
|---|---|---|---|---|---|---|---|
| 1777920580 | 20.56° C | 41% | 1011 hPa | - | - | - | - |
| 1777920280 | 20.56° C | 40% | 1011 hPa | - | - | - | - |
| 1777919980 | 21.11° C | 39% | 1011.2 hPa | - | - | - | - |
| 1777919679 | 20.56° C | 40% | 1011.2 hPa | - | - | - | - |
| 1777919379 | 20.56° C | 42% | 1011.1 hPa | - | - | - | - |
| 1777919079 | 20° C | 43% | 1011.2 hPa | - | - | - | - |
| 1777918779 | 20° C | 43% | 1011.3 hPa | - | - | - | - |
| 1777918479 | 20° C | 43% | 1011.4 hPa | - | - | - | - |
| 1777918179 | 20° C | 41% | 1011.4 hPa | - | - | - | - |
| 1777917879 | 20° C | 42% | 1011.4 hPa | - | - | - | - |
| 1777917579 | 20° C | 43% | 1011.5 hPa | - | - | - | - |
| 1777917278 | 20° C | 43% | 1011.4 hPa | - | - | - | - |
| 1777916979 | 20° C | 43% | 1011.7 hPa | - | - | - | - |
| 1777916678 | 20° C | 45% | 1011.7 hPa | - | - | - | - |
| 1777916378 | 20° C | 45% | 1011.7 hPa | - | - | - | - |
| 1777916078 | 20° C | 45% | 1011.7 hPa | - | - | - | - |
| 1777915778 | 20° C | 45% | 1011.9 hPa | - | - | - | - |
| 1777915478 | 19.44° C | 44% | 1011.8 hPa | - | - | - | - |
| 1777915178 | 19.44° C | 47% | 1011.9 hPa | - | - | - | - |
| 1777914878 | 19.44° C | 44% | 1012 hPa | - | - | - | - |
| 1777914577 | 19.44° C | 46% | 1012 hPa | - | - | - | - |
| 1777914278 | 19.44° C | 44% | 1011.9 hPa | - | - | - | - |
| 1777913977 | 19.44° C | 41% | 1012.1 hPa | - | - | - | - |
| 1777913677 | 19.44° C | 43% | 1012 hPa | - | - | - | - |
| 1777913377 | 19.44° C | 45% | 1011.9 hPa | - | - | - | - |
* Rain since midnight (hover to see other rain measurements)
** Current wind speed in m/s (hover to see current wind gust speed)